When you browse on this site, cookies collect data to enhance your experience and personalize the content and advertising you see.
Visit our Privacy Policy to learn more. By continuing to use the site, you agree to this use of cookies and data.
  • In Österreich
  • Länderverzeichnis
  • Für 7 Tage
  • Wassertemperatur
  • Satellitenkarten
  • Wetterkarte
  • News
  • Widgets
  • user-avatar
    Anmelden

    Stündliche Wetter Julara

    Heute, 20 März, Mittwoch

    Zeit Temperatur Niederschläge Wind Luftdruck Luftfeuchtigkeit
    00:00 +29°C° 0 mm 5 m/S 716 mmHg 21%
    01:00 +28°C° 0 mm 5 m/S 716 mmHg 22%
    02:00 +28°C° 0 mm 4 m/S 716 mmHg 23%
    03:00 +27°C° 0 mm 4 m/S 716 mmHg 25%
    04:00 +27°C° 0 mm 4 m/S 716 mmHg 25%
    05:00 +27°C° 0 mm 4 m/S 717 mmHg 26%
    06:00 +26°C° 0 mm 3 m/S 717 mmHg 26%
    07:00 +28°C° 0 mm 4 m/S 717 mmHg 23%
    08:00 +30°C° 0 mm 5 m/S 717 mmHg 20%
    09:00 +34°C° 0 mm 7 m/S 718 mmHg 16%
    10:00 +36°C° 0 mm 7 m/S 718 mmHg 15%
    11:00 +38°C° 0 mm 6 m/S 718 mmHg 13%
    12:00 +40°C° 0 mm 6 m/S 717 mmHg 12%
    13:00 +41°C° 0 mm 6 m/S 717 mmHg 11%
    14:00 +41°C° 0 mm 5 m/S 716 mmHg 11%
    15:00 +42°C° 0 mm 5 m/S 716 mmHg 11%
    16:00 +41°C° 0 mm 5 m/S 716 mmHg 12%
    17:00 +41°C° 0 mm 4 m/S 716 mmHg 12%
    18:00 +40°C° 0 mm 4 m/S 716 mmHg 13%
    19:00 +37°C° 0 mm 4 m/S 716 mmHg 15%
    20:00 +35°C° 0 mm 4 m/S 716 mmHg 17%
    21:00 +33°C° 0 mm 4 m/S 717 mmHg 19%
    22:00 +32°C° 0 mm 4 m/S 717 mmHg 20%
    23:00 +30°C° 0 mm 4 m/S 717 mmHg 22%

    Morgen, 21 März, Donnerstag

    Zeit Temperatur Niederschläge Wind Luftdruck Luftfeuchtigkeit
    00:00 +30°C° 0 mm 4 m/S 717 mmHg 23%
    01:00 +29°C° 0 mm 4 m/S 717 mmHg 25%
    02:00 +28°C° 0 mm 4 m/S 716 mmHg 26%
    03:00 +28°C° 0 mm 4 m/S 716 mmHg 28%
    04:00 +27°C° 0 mm 4 m/S 716 mmHg 29%
    05:00 +26°C° 0 mm 4 m/S 716 mmHg 30%
    06:00 +26°C° 0 mm 3 m/S 716 mmHg 31%
    07:00 +28°C° 0 mm 5 m/S 716 mmHg 28%
    08:00 +32°C° 0 mm 6 m/S 717 mmHg 24%
    09:00 +34°C° 0 mm 7 m/S 717 mmHg 20%
    10:00 +36°C° 0 mm 6 m/S 717 mmHg 18%
    11:00 +39°C° 0 mm 6 m/S 717 mmHg 16%
    12:00 +41°C° 0 mm 6 m/S 716 mmHg 14%
    13:00 +41°C° 0 mm 5 m/S 716 mmHg 13%
    14:00 +42°C° 0 mm 5 m/S 715 mmHg 13%
    15:00 +43°C° 0 mm 5 m/S 715 mmHg 12%
    16:00 +42°C° 0 mm 5 m/S 715 mmHg 13%
    17:00 +41°C° 0 mm 5 m/S 715 mmHg 13%
    18:00 +40°C° 0 mm 5 m/S 715 mmHg 14%
    19:00 +37°C° 0 mm 5 m/S 715 mmHg 16%
    20:00 +36°C° 0 mm 5 m/S 715 mmHg 18%
    21:00 +34°C° 0 mm 5 m/S 716 mmHg 20%
    22:00 +33°C° 0 mm 5 m/S 716 mmHg 21%
    23:00 +32°C° 0 mm 5 m/S 716 mmHg 23%

    übermorgen, 22 März, Freitag

    Zeit Temperatur Niederschläge Wind Luftdruck Luftfeuchtigkeit
    00:00 +30°C° 0 mm 5 m/S 716 mmHg 24%
    01:00 +30°C° 0 mm 5 m/S 716 mmHg 25%
    02:00 +29°C° 0 mm 4 m/S 715 mmHg 26%
    03:00 +28°C° 0 mm 4 m/S 715 mmHg 27%
    04:00 +28°C° 0 mm 4 m/S 715 mmHg 28%
    05:00 +27°C° 0 mm 4 m/S 715 mmHg 29%
    06:00 +26°C° 0 mm 4 m/S 715 mmHg 30%
    07:00 +29°C° 0 mm 4 m/S 716 mmHg 27%
    08:00 +32°C° 0 mm 5 m/S 716 mmHg 23%
    09:00 +35°C° 0 mm 6 m/S 716 mmHg 20%
    10:00 +36°C° 0 mm 6 m/S 716 mmHg 18%
    11:00 +39°C° 0 mm 6 m/S 716 mmHg 16%
    12:00 +41°C° 0 mm 5 m/S 715 mmHg 14%
    13:00 +42°C° 0 mm 5 m/S 715 mmHg 13%
    14:00 +42°C° 0 mm 4 m/S 714 mmHg 12%
    15:00 +43°C° 0 mm 4 m/S 713 mmHg 11%
    16:00 +42°C° 0 mm 4 m/S 713 mmHg 12%
    17:00 +42°C° 0 mm 4 m/S 713 mmHg 12%
    18:00 +41°C° 0 mm 4 m/S 713 mmHg 12%
    19:00 +38°C° 0 mm 4 m/S 713 mmHg 14%
    20:00 +36°C° 0 mm 4 m/S 714 mmHg 16%
    21:00 +34°C° 0 mm 4 m/S 714 mmHg 17%
    22:00 +34°C° 0 mm 4 m/S 714 mmHg 18%
    23:00 +33°C° 0 mm 5 m/S 714 mmHg 19%

    23 März, Samstag

    Zeit Temperatur Niederschläge Wind Luftdruck Luftfeuchtigkeit
    00:00 +32°C° 0 mm 5 m/S 713 mmHg 19%
    01:00 +32°C° 0 mm 5 m/S 713 mmHg 20%
    02:00 +30°C° 0 mm 5 m/S 713 mmHg 20%
    03:00 +29°C° 0 mm 5 m/S 712 mmHg 21%
    04:00 +29°C° 0 mm 4 m/S 712 mmHg 22%
    05:00 +28°C° 0 mm 3 m/S 712 mmHg 23%
    06:00 +27°C° 0 mm 3 m/S 712 mmHg 25%
    07:00 +29°C° 0 mm 3 m/S 713 mmHg 24%
    08:00 +33°C° 0 mm 4 m/S 713 mmHg 23%
    09:00 +36°C° 0 mm 4 m/S 714 mmHg 22%
    10:00 +37°C° 0 mm 4 m/S 714 mmHg 20%
    11:00 +40°C° 0 mm 4 m/S 714 mmHg 17%
    12:00 +42°C° 0 mm 5 m/S 714 mmHg 15%
    13:00 +43°C° 0 mm 4 m/S 713 mmHg 14%
    14:00 +43°C° 0 mm 4 m/S 712 mmHg 13%
    15:00 +43°C° 0 mm 3 m/S 711 mmHg 12%
    16:00 +43°C° 0 mm 3 m/S 711 mmHg 13%
    17:00 +41°C° 0 mm 2 m/S 711 mmHg 13%
    18:00 +40°C° 0 mm 2 m/S 711 mmHg 13%
    19:00 +39°C° 0 mm 3 m/S 712 mmHg 14%
    20:00 +38°C° 0 mm 3 m/S 713 mmHg 15%
    21:00 +37°C° 0 mm 4 m/S 713 mmHg 16%
    22:00 +35°C° 0 mm 5 m/S 713 mmHg 19%
    23:00 +34°C° 0 mm 6 m/S 713 mmHg 22%

    24 März, Sonntag

    Zeit Temperatur Niederschläge Wind Luftdruck Luftfeuchtigkeit
    00:00 +33°C° 0 mm 7 m/S 713 mmHg 25%
    01:00 +32°C° 0 mm 7 m/S 713 mmHg 26%
    02:00 +31°C° 0 mm 8 m/S 713 mmHg 28%
    03:00 +29°C° 0 mm 8 m/S 712 mmHg 29%
    04:00 +29°C° 0 mm 8 m/S 713 mmHg 32%
    05:00 +28°C° 0 mm 8 m/S 713 mmHg 34%
    06:00 +27°C° 0 mm 8 m/S 714 mmHg 37%
    07:00 +29°C° 0 mm 8 m/S 714 mmHg 35%
    08:00 +31°C° 0 mm 8 m/S 714 mmHg 32%
    09:00 +33°C° 0 mm 8 m/S 715 mmHg 30%
    10:00 +35°C° 0 mm 7 m/S 714 mmHg 28%
    11:00 +36°C° 0 mm 7 m/S 714 mmHg 26%
    12:00 +39°C° 0 mm 6 m/S 714 mmHg 25%
    13:00 +40°C° 0 mm 6 m/S 713 mmHg 23%
    14:00 +41°C° 0 mm 6 m/S 712 mmHg 22%
    15:00 +41°C° 0 mm 7 m/S 711 mmHg 20%
    16:00 +40°C° 0 mm 7 m/S 712 mmHg 23%
    17:00 +39°C° 0 mm 6 m/S 712 mmHg 27%
    18:00 +38°C° 0 mm 6 m/S 713 mmHg 30%
    19:00 +36°C° 0.9 mm 7 m/S 713 mmHg 35%
    20:00 +34°C° 0.9 mm 7 m/S 714 mmHg 40%
    21:00 +32°C° 0.9 mm 7 m/S 715 mmHg 46%
    22:00 +31°C° 0.1 mm 8 m/S 715 mmHg 48%
    23:00 +29°C° 0.1 mm 9 m/S 715 mmHg 50%

    25 März, Montag

    Zeit Temperatur Niederschläge Wind Luftdruck Luftfeuchtigkeit
    00:00 +27°C° 0.1 mm 10 m/S 715 mmHg 52%
    01:00 +26°C° 0 mm 10 m/S 715 mmHg 57%
    02:00 +24°C° 0 mm 10 m/S 715 mmHg 61%
    03:00 +23°C° 0 mm 10 m/S 714 mmHg 66%
    04:00 +23°C° 0 mm 10 m/S 715 mmHg 66%
    05:00 +22°C° 0 mm 10 m/S 716 mmHg 66%
    06:00 +22°C° 0 mm 10 m/S 716 mmHg 67%
    07:00 +22°C° 0 mm 10 m/S 717 mmHg 60%
    08:00 +23°C° 0 mm 11 m/S 717 mmHg 54%
    09:00 +24°C° 0 mm 11 m/S 718 mmHg 47%
    10:00 +27°C° 0 mm 11 m/S 717 mmHg 43%
    11:00 +29°C° 0 mm 10 m/S 717 mmHg 39%
    12:00 +32°C° 0 mm 10 m/S 716 mmHg 34%
    13:00 +33°C° 0 mm 10 m/S 716 mmHg 34%
    14:00 +34°C° 0 mm 10 m/S 715 mmHg 33%
    15:00 +34°C° 0 mm 10 m/S 715 mmHg 32%
    16:00 +34°C° 0 mm 10 m/S 715 mmHg 33%
    17:00 +33°C° 0 mm 10 m/S 716 mmHg 34%
    18:00 +32°C° 0 mm 10 m/S 716 mmHg 35%
    19:00 +31°C° 0 mm 9 m/S 717 mmHg 36%
    20:00 +29°C° 0 mm 9 m/S 718 mmHg 37%
    21:00 +28°C° 0 mm 9 m/S 718 mmHg 37%
    22:00 +27°C° 0 mm 9 m/S 718 mmHg 35%
    23:00 +26°C° 0 mm 9 m/S 718 mmHg 33%
    Mehr zeigen